Location: Newark
(45.5167°N, 11.1667°E)
Time: 15:17:06
(UTC+00:00)

A-11 Canister half - Visible Passes

Search period start: 15 December 2019 00:00
Search period end: 25 December 2019 00:00
Orbit: 1526 x 1683 km, 47.3° (Epoch: 14 December)

Date Brightness Start Highest point End Pass type
(mag) Time Alt. Az. Time Alt. Az. Time Alt. Az.
15 Dec 11.1 01:21:57 13° ESE 01:21:57 13° ESE 01:26:01 10° E visible
15 Dec 9.8 03:20:19 29° SSW 03:25:01 46° SE 03:34:30 10° ENE visible
15 Dec 9.2 05:19:28 10° WSW 05:29:40 88° SSE 05:39:52 10° ENE visible
16 Dec 11.2 01:02:17 11° ESE 01:02:17 11° ESE 01:03:43 10° E visible
16 Dec 9.8 03:00:39 37° S 03:03:24 44° SE 03:12:48 10° ENE visible
16 Dec 9.2 04:59:00 15° WSW 05:07:59 86° SSE 05:18:11 10° ENE visible
17 Dec 9.8 02:40:49 42° SSE 02:41:48 43° SE 02:51:05 10° ENE visible
17 Dec 9.1 04:39:10 23° WSW 04:46:19 85° SSE 04:56:31 10° ENE visible
18 Dec 9.9 02:20:52 40° SE 02:20:52 40° SE 02:29:22 10° ENE visible
18 Dec 9.1 04:19:12 33° WSW 04:24:38 83° SSE 04:34:51 10° ENE visible
19 Dec 10.1 02:00:48 35° ESE 02:00:48 35° ESE 02:07:39 10° ENE visible
19 Dec 9.1 03:59:08 45° WSW 04:02:57 82° SSE 04:13:10 10° ENE visible
19 Dec 9.2 05:58:15 10° W 06:08:29 81° N 06:18:39 10° E visible
20 Dec 10.4 01:40:39 29° E 01:40:39 29° E 01:45:56 10° ENE visible
20 Dec 9.1 03:38:58 59° SW 03:41:18 80° SSE 03:51:29 10° ENE visible
20 Dec 9.2 05:37:18 13° W 05:46:47 81° N 05:56:59 10° E visible
21 Dec 10.7 01:20:26 23° E 01:20:26 23° E 01:24:12 10° ENE visible
21 Dec 9.0 03:18:45 74° SSW 03:19:38 78° SSE 03:29:49 10° ENE visible
21 Dec 9.2 05:17:04 19° W 05:25:05 81° N 05:35:18 10° E visible
22 Dec 11.0 01:00:10 17° E 01:00:10 17° E 01:02:28 10° ENE visible
22 Dec 9.1 02:58:28 75° SE 02:58:28 75° SE 03:08:08 10° ENE visible
22 Dec 9.1 04:56:48 26° W 05:03:23 81° N 05:13:36 10° E visible
23 Dec 11.2 00:39:50 13° ENE 00:39:50 13° ENE 00:40:42 10° ENE visible
23 Dec 9.4 02:38:09 62° E 02:38:09 62° E 02:46:27 10° ENE visible
23 Dec 9.1 04:36:28 34° W 04:41:41 81° N 04:51:55 10° E visible
24 Dec 9.7 02:17:47 49° E 02:17:47 49° E 02:24:46 10° ENE visible
24 Dec 9.1 04:16:06 45° W 04:19:59 81° N 04:30:14 10° E visible
24 Dec 9.3 06:15:19 10° WNW 06:25:32 83° SSW 06:35:39 10° ESE visible
